Flag for Germany Weather past 2 weeks in Neunkirchen (Saar), Saarland, Germany

Now
52 °F

Passing clouds.


Feels Like: 49 °F
Forecast: 42 / 62 °F
Wind: 8 mph from Northwest

Location: Saarbruecken / Ensheim

Current Time: Sep 3, 2015 at 11:41:22 PM

Latest Report: Sep 3, 2015 at 10:50 PM


Visibility: N/A

Pressure: 30.01 "Hg

Humidity: 72%

Dew point: 43 °F

Location of Neunkirchen (Saar)Location

Historic Weather in Neunkirchen (Saar) — Graph

°F

Neunkirchen (Saar) temperature yesterday

Maximum temperature yesterday: 68 °F (at 4:20 PM)
Minimum temperature yesterday: 52 °F (at 3:50 AM)
Average temperature yesterday: 58 °F

Past Weeks' High & Low Weather Summary

 TemperatureHumidityPressure
High90 °F (Aug 30, 3:50 PM)100% (Aug 28, 9:20 AM)30.27 "Hg (Aug 28, 9:20 AM)
Low52 °F (Aug 20, 3:50 AM)25% (Aug 31, 2:20 PM)29.68 "Hg (Aug 24, 6:20 AM)
Average67 °F65%30.01 "Hg
* Reported Aug 19 10:20 PM — Sep 3 10:20 PM, Neunkirchen (Saar), Weather by CustomWeather, © 2015

Note: Actual official high and low records may vary slightly from our data, if they occured in-between our weather recording intervals... More about our weather records

Advertising

Neunkirchen (Saar) weather history for previous 24 hours

 ConditionsComfort  
Time TempWeatherWind HumidityBarometerVisibility
10:20 PM
Thu, Sep 3
52 °FClear.2 mph72%30.01 "Hg10 mi
9:50 PM54 °FClear.3 mph67%30.01 "Hg10 mi
9:20 PM54 °FClear.3 mph67%29.98 "Hg10 mi
8:50 PM57 °FSunny.2 mph55%29.98 "Hg10 mi
8:20 PM59 °FSunny.7 mph51%29.98 "Hg10 mi
7:50 PM61 °FSunny.9 mph48%29.98 "Hg10 mi
7:20 PM63 °FPassing clouds.10 mph49%29.98 "HgN/A
6:50 PM63 °FPassing clouds.12 mph49%29.98 "HgN/A
6:20 PM64 °FPassing clouds.13 mph46%29.98 "HgN/A
5:20 PM66 °FPassing clouds.14 mph43%29.95 "HgN/A
4:50 PM66 °FPassing clouds.13 mph46%29.95 "HgN/A
4:20 PM66 °FSunny.14 mph40%29.95 "Hg10 mi
3:50 PM68 °FPassing clouds.13 mph43%29.95 "HgN/A
3:20 PM66 °FPassing clouds.12 mph46%29.98 "HgN/A
2:50 PM66 °FPassing clouds.12 mph46%29.98 "HgN/A
2:20 PM66 °FScattered clouds.9 mph49%29.98 "HgN/A
1:50 PM64 °FScattered clouds.8 mph52%29.98 "HgN/A
1:20 PM66 °FScattered clouds.8 mph49%29.98 "HgN/A
12:50 PM64 °FPartly sunny.8 mph56%29.98 "HgN/A
12:20 PM63 °FPartly sunny.12 mph59%29.98 "HgN/A
11:50 AM63 °FPartly sunny.7 mph64%29.98 "HgN/A
11:20 AM61 °FPartly sunny.8 mph63%29.98 "HgN/A
10:50 AM61 °FPartly sunny.8 mph68%30.01 "HgN/A
10:20 AM59 °FPartly sunny.9 mph72%29.98 "HgN/A
9:50 AM57 °FPassing clouds.6 mph82%29.98 "HgN/A
9:20 AM55 °FSunny.3 mph88%29.98 "Hg10 mi
8:50 AM55 °FSunny.3 mph88%29.98 "Hg10 mi
8:20 AM54 °FSunny.2 mph94%29.98 "Hg10 mi
7:50 AM54 °FSunny.2 mph94%29.98 "Hg10 mi
7:20 AM54 °FClear.2 mph88%29.98 "Hg10 mi
6:50 AM54 °FClear.3 mph88%29.98 "Hg10 mi
6:20 AM54 °FPassing clouds.3 mph88%29.98 "HgN/A
5:20 AM54 °FClear.2 mph88%29.98 "Hg10 mi
4:50 AM54 °FClear.3 mph88%29.98 "Hg10 mi
4:20 AM54 °FClear.5 mph88%29.98 "Hg10 mi
3:50 AM55 °FClear.3 mph82%29.98 "Hg10 mi
3:20 AM55 °FClear.3 mph82%29.98 "Hg10 mi
2:50 AM55 °FClear.3 mph82%29.98 "Hg10 mi
2:20 AM55 °FClear.5 mph82%30.01 "Hg10 mi
1:50 AM55 °FClear.3 mph82%29.98 "Hg10 mi
1:20 AM55 °FClear.5 mph82%29.98 "Hg10 mi
12:50 AM55 °FClear.3 mph82%30.01 "Hg10 mi
12:20 AM55 °FClear.5 mph82%30.01 "Hg10 mi
11:50 PM
Wed, Sep 2
57 °FClear.2 mph77%30.01 "Hg10 mi
11:20 PM57 °FClear.2 mph82%30.01 "Hg10 mi
Weather by CustomWeather, © 2015

See weather overviewHow to use our weather pages